Regional Weather Roundup
Issued by NWS

Home | Current Version | Previous Version | Graphics & Text | Print | Product List | Glossary On
Versions: 1 2 3 4 5 6 7 8 9 10 11 12 13 14 15 16 17 18 19 20 21 22 23 24 25 26 27 28 29 30 31 32 33 34 35 36 37 38 39 40 41 42 43 44 45 46 47 48 49 50
000
ASUS45 KBOU 270707
RWRCO

WEATHER ROUNDUP FOR COLORADO
NATIONAL WEATHER SERVICE DENVER/BOULDER CO
100 AM MDT THU AUG 27 2015

NOTE: "FAIR" INDICATES FEW OR NO CLOUDS BELOW 12000 FEET WITH NO
SIGNIFICANT WEATHER AND/OR OBSTRUCTIONS TO VISIBILITY.

COZ001>005-013-030-031-270800-
...NORTHWEST COLORADO...

CITY           SKY/WX    TMP DP  RH WIND       PRES   REMARKS
CRAIG          LGT RAIN  59  57  93 CALM      30.31F
HAYDEN         NOT AVBL
MEEKER         LGT RAIN  60  57  89 CALM      30.32F
MOUNT WERNER   NOT AVBL
STEAMBOAT SPGS CLOUDY    57  54  89 CALM      30.34S
WALDEN         CLOUDY    54  48  82 NE3       30.39S
$$

COZ006>008-011-270800-
...WEST CENTRAL VALLEYS...

CITY           SKY/WX    TMP DP  RH WIND       PRES   REMARKS
GRAND JUNCTION CLOUDY    63  62  97 E3        30.23F
MONTROSE       CLOUDY    62  55  77 W5        30.31S
EAGLE          CLOUDY    61  55  82 CALM      30.34S
RIFLE          CLOUDY    63  60  90 E3        30.28S
DELTA          LGT RAIN  64  60  87 NE5       30.28S
NUCLA          NOT AVBL
$$

COZ017>023-064>068-270800-
...SOUTHWEST COLORADO...

CITY           SKY/WX    TMP DP  RH WIND       PRES   REMARKS
DURANGO        CLOUDY    57  55  93 E8        30.44R
CORTEZ         PTCLDY    62  56  80 S9        30.35S
PAGOSA SPRINGS RAIN      56  56 100 SE5       30.51F
TELLURIDE      RAIN      55  51  88 E5        30.53S
WOLF CREEK PAS RAIN      41  41 100 S21G37    30.73F VSB 1/4
$$

COZ009-010-012-014-032>034-037-058>063-270800-
...CENTRAL COLORADO...

CITY           SKY/WX    TMP DP  RH WIND       PRES   REMARKS
ASPEN          LGT RAIN  56  51  84 CALM      30.40R
BUENA VISTA    MOCLDY    50  46  87 W5        30.42F
COPPER MTN     CLOUDY    50  37  62 SW9G16    30.66F
BERTHOUD PASS  CLOUDY    41  28  60 NW13G18   30.68F
COTTONWOOD PAS MOCLDY    54  43  66 SE5       30.53F
GUNNISON       MOCLDY    55  48  76 N6        30.46S
KREMMLING      MOCLDY    55  46  71 E5        30.39R
LEADVILLE      MOCLDY    47  39  74 CALM      30.52S
MONARCH PASS   FOG       43  41  93 SW23      30.76F VSB<1/4
SALIDA         MOCLDY    58  50  74 N5        30.45F
SUNLIGHT       LGT RAIN  50  48  93 CALM      30.60F
WILKERSON PASS PTCLDY    43  39  87 SW15G23   30.59F
$$

COZ069>075-270800-
...SAN LUIS VALLEY/SANGRE DE CRISTO MOUNTAINS...

CITY           SKY/WX    TMP DP  RH WIND       PRES   REMARKS
ALAMOSA        CLOUDY    54  52  93 SE5       30.45S
LA VETA PASS   CLOUDY    46  45  93 S14       30.54S
SAGUACHE       NOT AVBL
$$

COZ035-036-038>040-270800-
...NORTHERN COLORADO FRONT RANGE...

CITY           SKY/WX    TMP DP  RH WIND       PRES   REMARKS
DENVER INTL AP PTCLDY    66  44  45 CALM      30.11F
DMNS CITY PARK   N/A     66  51  58 E9        30.11S
AURORA         PTCLDY    66  46  47 W3        30.14S
FRONT RANGE AP PTCLDY    64  41  42 N3        30.12F
ERIE MUNI ARPT PTCLDY    62  48  60 S3        30.09F
BOULDER MUN AP PTCLDY    64  46  52 W3        30.10F
CENTENNIAL     PTCLDY    68  44  42 W5        30.16R
BROOMFIELD     PTCLDY    66  45  45 SW6       30.14S
FORT COLLINS   PTCLDY    66  50  55 SE3       30.10S
LONGMONT       PTCLDY    64  49  58 NW5       30.11S
$$

COZ041-046-047-076>085-087-088-270800-
...PIKES PEAK/PALMER DIVIDE AND SOUTHERN FOOTHILLS...

CITY           SKY/WX    TMP DP  RH WIND       PRES   REMARKS
COLO. SPRINGS  PTCLDY    61  43  51 CALM      30.20F
A. F. ACADEMY  CLEAR     65  42  43 S7        30.22S
ELLICOTT       CLEAR    N/A N/A N/A SW8       30.20R
FALCON         CLEAR     59  43  55 CALM      30.25F
FORT CARSON    NOT AVBL
LIMON          PTCLDY    65  49  56 S8        30.13S
MONUMENT HILL  CLEAR     61  41  48 SW12      30.25S
TRINIDAD       CLOUDY    71  47  42 W14       30.23F
$$

COZ042>045-048>051-090-091-270800-
...NORTHEAST COLORADO...

CITY           SKY/WX    TMP DP  RH WIND       PRES   REMARKS
GREELEY ARPT   PTCLDY    61  50  67 W6        30.07F
AKRON          CLEAR     67  45  45 SW8       30.07F
BURLINGTON     PTCLDY    70  51  51 S10       30.09F
WRAY           PTCLDY    73  47  39 W5        30.03S
STERLING       CLEAR     64  46  52 SW15      30.02S
HOLYOKE        PTCLDY    64  52  63 SW8       30.01F
FORT MORGAN    CLEAR     61  45  54 CALM      30.06S
$$

COZ086-089-092>099-270800-
...SOUTHEAST COLORADO...

CITY           SKY/WX    TMP DP  RH WIND       PRES   REMARKS
PUEBLO         PTCLDY    70  48  45 W3        30.12F
LA JUNTA       MOCLDY    77  49  37 SW10      30.10F
LAMAR          CLOUDY    77  49  37 SW10      30.06F
SPRINGFIELD      N/A     72  52  49 S14       30.17S
$$



USA.gov is the U.S. government's official web portal to all federal, state and local government web resources and services.